QPF
0.00 0.00 0.00 0.00 0.00 0.00 0.00 0.00 0.00 0.00 0.00 0.00 0.00 0.00 0.00 0.00 0.01 0.02 0.01 0.00 0.00 0.00 0.00 0.00 0.00 0.00 0.01 0.03 0.02 0.01 0.01 0.01 0.04 0.04 0.06 0.03 0.01 0.00 0.00 0.00 0.00 0.00 0.00 0.00 0.00 0.00 0.00 0.00 0.00 0.00 0.00 0.00 0.00 0.00
0.00 0.00 0.00 0.00 0.00 0.00 0.00 0.00 0.00 0.00 0.00 0.00 0.00 0.00 0.00 0.00 0.00 0.02 0.01 0.00 0.00 0.00 0.00 0.00 0.00 0.00 0.00 0.00 0.02 0.01 0.02 0.01 0.01 0.01 0.01 0.00 0.00 0.00 0.00 0.00 0.00 0.00 0.00 0.00 0.00 0.00 0.00 0.00 0.00 0.00 0.00 0.00 0.00 0.00
0.00 0.00 0.00 0.00 0.00 0.00 0.00 0.00 0.00 0.00 0.00 0.00 0.00 0.00 0.01 0.01 0.00 0.02 0.01 0.00 0.00 0.00 0.00 0.00 0.00 0.00 0.00 0.00 0.00 0.01 0.01 0.00 0.01 0.00 0.00 0.00 0.00 0.00 0.00 0.00 0.00 0.00 0.00 0.00 0.00 0.00 0.00 0.00 0.00 0.00 0.00 0.00 0.00 0.00
0.00 0.00 0.00 0.00 0.00 0.00 0.00 0.00 0.00 0.00 0.00 0.00 0.00 0.00 0.00 0.00 0.00 0.00 0.00 0.00 0.00 0.00 0.00 0.00 0.00 0.00 0.00 0.00 0.00 0.00 0.00 0.00 0.00 0.00 0.00 0.01 0.00 0.00 0.00 0.00 0.00 0.00 0.00 0.00 0.00 0.00 0.00 0.00 0.00 0.00 0.00 0.00 0.00 0.00
0.00 0.00 0.00 0.00 0.00 0.00 0.00 0.00 0.00 0.00 0.00 0.00 0.00 0.00 0.00 0.00 0.00 0.00 0.00 0.00 0.00 0.00 0.00 0.00 0.00 0.00 0.00 0.00 0.00 0.01 0.01 0.01 0.01 0.00 0.00 0.00 0.00 0.00 0.00 0.00 0.00 0.00 0.00 0.00 0.00 0.00 0.00 0.00 0.00 0.00 0.00 0.00 0.00 0.00
0.00 0.00 0.00 0.00 0.00 0.00 0.00 0.00 0.00 0.00 0.00 0.00 0.00 0.00 0.00 0.00 0.00 0.01 0.00 0.00 0.00 0.00 0.00 0.00 0.00 0.00 0.00 0.00 0.00 0.00 0.00 0.00 0.01 0.00 0.00 0.00 0.01 0.00 0.00 0.00 0.00 0.00 0.00 0.00 0.00 0.00 0.00 0.00 0.00 0.00 0.00 0.00 0.00 0.00
0.00 0.00 0.00 0.00 0.00 0.00 0.00 0.00 0.00 0.00 0.00 0.00 0.00 0.00 0.00 0.00 0.00 0.00 0.00 0.00 0.00 0.00 0.00 0.00 0.00 0.00 0.00 0.00 0.00 0.00 0.00 0.00 0.00 0.00 0.00 0.00 0.00 0.01 0.00 0.00 0.00 0.00 0.00 0.00 0.00 0.00 0.00 0.00 0.00 0.00 0.00 0.00 0.00 0.00
0.00 0.00 0.00 0.00 0.00 0.00 0.00 0.00 0.00 0.00 0.00 0.00 0.00 0.00 0.00 0.00 0.00 0.00 0.00 0.00 0.00 0.00 0.00 0.00 0.00 0.00 0.00 0.00 0.00 0.00 0.00 0.00 0.00 0.00 0.00 0.00 0.00 0.00 0.00 0.00 0.00 0.00 0.00 0.00 0.00 0.01 0.00 0.00 0.00 0.00 0.00 0.00 0.00 0.00
0.00 0.00 0.00 0.00 0.00 0.00 0.00 0.00 0.00 0.00 0.00 0.00 0.00 0.00 0.00 0.00 0.00 0.00 0.00 0.00 0.00 0.00 0.00 0.00 0.00 0.00 0.00 0.00 0.00 0.00 0.00 0.00 0.00 0.00 0.00 0.00 0.00 0.00 0.01 0.02 0.01 0.00 0.00 0.01 0.01 0.01 0.00 0.00 0.00 0.00 0.00 0.00 0.00 0.00
0.00 0.00 0.00 0.00 0.00 0.00 0.00 0.00 0.00 0.00 0.00 0.00 0.00 0.00 0.00 0.00 0.00 0.00 0.00 0.00 0.00 0.00 0.00 0.00 0.00 0.00 0.00 0.00 0.00 0.00 0.00 0.00 0.00 0.00 0.01 0.01 0.00 0.02 0.02 0.02 0.02 0.01 0.00 0.00 0.00 0.01 0.01 0.00 0.00 0.00 0.00 0.00 0.00 0.00
0.00 0.00 0.00 0.00 0.00 0.00 0.00 0.00 0.00 0.00 0.00 0.00 0.00 0.00 0.00 0.00 0.00 0.00 0.00 0.00 0.00 0.00 0.00 0.00 0.01 0.01 0.01 0.00 0.00 0.00 0.01 0.01 0.01 0.00 0.01 0.00 0.00 0.02 0.01 0.01 0.01 0.01 0.01 0.00 0.01 0.01 0.01 0.02 0.01 0.01 0.01 0.01 0.01 0.00
0.00 0.00 0.00 0.00 0.00 0.00 0.00 0.00 0.00 0.00 0.00 0.00 0.00 0.00 0.00 0.00 0.00 0.00 0.00 0.00 0.01 0.01 0.01 0.03 0.03 0.01 0.02 0.00 0.00 0.02 0.06 0.04 0.01 0.00 0.00 0.01 0.02 0.02 0.00 0.00 0.00 0.00 0.01 0.01 0.01 0.01 0.01 0.01 0.00 0.00 0.01 0.01 0.01 0.01
0.00 0.00 0.00 0.00 0.00 0.00 0.00 0.00 0.00 0.00 0.00 0.00 0.00 0.00 0.00 0.00 0.00 0.00 0.00 0.00 0.00 0.00 0.00 0.00 0.03 0.02 0.08 0.04 0.07 0.07 0.04 0.01 0.00 0.00 0.00 0.03 0.04 0.02 0.00 0.00 0.00 0.00 0.00 0.01 0.00 0.00 0.00 0.00 0.00 0.00 0.00 0.01 0.00 0.01
0.00 0.00 0.00 0.00 0.00 0.00 0.00 0.00 0.00 0.00 0.00 0.00 0.00 0.00 0.00 0.00 0.00 0.00 0.00 0.00 0.00 0.00 0.00 0.00 0.03 0.04 0.03 0.03 0.01 0.01 0.02 0.00 0.00 0.00 0.00 0.02 0.04 0.02 0.01 0.00 0.00 0.00 0.00 0.00 0.01 0.01 0.00 0.00 0.00 0.00 0.00 0.01 0.02 0.02
0.00 0.00 0.00 0.00 0.00 0.00 0.00 0.00 0.00 0.00 0.00 0.00 0.00 0.00 0.00 0.00 0.00 0.00 0.00 0.00 0.00 0.00 0.00 0.00 0.00 0.00 0.00 0.00 0.00 0.00 0.00 0.00 0.00 0.01 0.02 0.04 0.05 0.02 0.00 0.00 0.00 0.00 0.00 0.00 0.00 0.01 0.00 0.00 0.00 0.00 0.00 0.00 0.00 0.01
0.00 0.00 0.00 0.00 0.00 0.00 0.00 0.00 0.00 0.00 0.00 0.00 0.00 0.00 0.00 0.00 0.00 0.00 0.00 0.00 0.00 0.00 0.00 0.00 0.00 0.00 0.00 0.00 0.00 0.00 0.00 0.01 0.01 0.02 0.03 0.02 0.03 0.01 0.00 0.00 0.00 0.00 0.00 0.00 0.00 0.00 0.01 0.00 0.00 0.00 0.00 0.00 0.00 0.00
0.00 0.00 0.00 0.00 0.00 0.00 0.00 0.00 0.00 0.00 0.00 0.00 0.00 0.00 0.00 0.00 0.00 0.00 0.00 0.00 0.00 0.00 0.00 0.00 0.00 0.00 0.00 0.00 0.00 0.00 0.00 0.00 0.00 0.00 0.00 0.01 0.00 0.00 0.00 0.00 0.00 0.00 0.00 0.00 0.00 0.00 0.00 0.00 0.00 0.00 0.00 0.00 0.00 0.00
0.00 0.00 0.00 0.00 0.00 0.00 0.00 0.00 0.00 0.00 0.00 0.00 0.00 0.00 0.00 0.00 0.00 0.00 0.00 0.00 0.00 0.00 0.00 0.00 0.00 0.00 0.00 0.00 0.00 0.00 0.00 0.00 0.00 0.00 0.00 0.01 0.00 0.00 0.00 0.00 0.00 0.00 0.00 0.00 0.00 0.00 0.00 0.00 0.00 0.00 0.00 0.00 0.00 0.00
0.00 0.00 0.00 0.00 0.00 0.00 0.00 0.00 0.00 0.00 0.00 0.00 0.00 0.00 0.00 0.00 0.00 0.00 0.00 0.00 0.00 0.00 0.00 0.00 0.00 0.00 0.00 0.00 0.00 0.00 0.00 0.00 0.00 0.00 0.00 0.00 0.00 0.00 0.00 0.00 0.00 0.00 0.00 0.00 0.00 0.00 0.00 0.00 0.00 0.00 0.00 0.00 0.00 0.00
0.00 0.00 0.00 0.00 0.00 0.00 0.00 0.00 0.00 0.00 0.00 0.00 0.00 0.00 0.00 0.00 0.00 0.00 0.00 0.00 0.00 0.00 0.00 0.00 0.00 0.00 0.00 0.00 0.00 0.00 0.00 0.00 0.00 0.00 0.00 0.00 0.00 0.00 0.00 0.00 0.00 0.00 0.00 0.00 0.00 0.00 0.00 0.00 0.00 0.00 0.00 0.00 0.00 0.00
0.00 0.00 0.00 0.00 0.00 0.00 0.00 0.00 0.00 0.00 0.00 0.00 0.00 0.00 0.00 0.00 0.00 0.00 0.00 0.00 0.00 0.00 0.00 0.00 0.00 0.00 0.00 0.00 0.00 0.00 0.00 0.00 0.00 0.00 0.00 0.00 0.00 0.00 0.00 0.00 0.00 0.00 0.00 0.00 0.00 0.00 0.00 0.00 0.00 0.00 0.00 0.00 0.00 0.00
0.00 0.00 0.00 0.00 0.00 0.00 0.00 0.00 0.00 0.00 0.00 0.00 0.00 0.00 0.00 0.00 0.00 0.00 0.00 0.00 0.00 0.00 0.00 0.00 0.00 0.00 0.00 0.00 0.00 0.00 0.00 0.00 0.00 0.00 0.00 0.00 0.00 0.00 0.00 0.00 0.00 0.00 0.00 0.00 0.00 0.00 0.00 0.00 0.00 0.00 0.00 0.00 0.00 0.00
0.00 0.00 0.00 0.00 0.00 0.00 0.00 0.00 0.00 0.00 0.00 0.00 0.00 0.00 0.00 0.00 0.00 0.00 0.00 0.00 0.00 0.00 0.00 0.00 0.00 0.00 0.00 0.00 0.00 0.00 0.00 0.00 0.00 0.00 0.00 0.00 0.00 0.00 0.00 0.00 0.00 0.00 0.00 0.00 0.00 0.00 0.00 0.00 0.00 0.00 0.00 0.00 0.00 0.00
0.00 0.00 0.00 0.00 0.00 0.00 0.00 0.00 0.00 0.00 0.00 0.00 0.00 0.00 0.00 0.00 0.00 0.00 0.00 0.00 0.00 0.00 0.00 0.00 0.00 0.00 0.00 0.00 0.00 0.00 0.00 0.00 0.00 0.00 0.00 0.00 0.00 0.00 0.00 0.00 0.00 0.00 0.00 0.00 0.00 0.00 0.00 0.00 0.00 0.00 0.00 0.00 0.00 0.00
0.00 0.00 0.00 0.00 0.00 0.00 0.00 0.00 0.00 0.00 0.00 0.00 0.00 0.00 0.00 0.00 0.00 0.00 0.00 0.00 0.00 0.00 0.00 0.00 0.00 0.00 0.00 0.00 0.00 0.00 0.00 0.00 0.00 0.00 0.00 0.00 0.00 0.00 0.00 0.00 0.00 0.00 0.00 0.00 0.00 0.00 0.00 0.00 0.00 0.00 0.00 0.00 0.00 0.00
0.00 0.00 0.00 0.00 0.00 0.00 0.00 0.00 0.00 0.01 0.01 0.00 0.00 0.00 0.00 0.01 0.02 0.02 0.00 0.00 0.00 0.00 0.00 0.00 0.00 0.00 0.00 0.00 0.00 0.00 0.00 0.00 0.00 0.00 0.00 0.00 0.00 0.00 0.00 0.00 0.00 0.00 0.00 0.00 0.00 0.00 0.00 0.00 0.00 0.00 0.00 0.00 0.00 0.00
0.00 0.00 0.00 0.00 0.00 0.00 0.00 0.01 0.01 0.02 0.00 0.00 0.00 0.00 0.01 0.03 0.04 0.03 0.01 0.00 0.00 0.00 0.00 0.00 0.00 0.00 0.00 0.00 0.00 0.00 0.00 0.00 0.00 0.00 0.00 0.00 0.00 0.00 0.00 0.00 0.00 0.00 0.00 0.00 0.00 0.00 0.00 0.00 0.00 0.00 0.00 0.00 0.00 0.00
0.00 0.00 0.00 0.00 0.00 0.00 0.02 0.01 0.00 0.01 0.00 0.00 0.00 0.00 0.00 0.02 0.04 0.01 0.01 0.00 0.00 0.00 0.00 0.00 0.00 0.00 0.00 0.00 0.00 0.00 0.00 0.00 0.00 0.00 0.00 0.00 0.00 0.00 0.00 0.00 0.00 0.00 0.00 0.00 0.00 0.00 0.00 0.00 0.00 0.00 0.00 0.00 0.00 0.00
0.00 0.00 0.00 0.00 0.00 0.00 0.01 0.03 0.01 0.01 0.00 0.00 0.00 0.00 0.00 0.01 0.02 0.00 0.00 0.00 0.00 0.00 0.00 0.00 0.00 0.00 0.00 0.00 0.00 0.00 0.00 0.00 0.00 0.00 0.00 0.00 0.00 0.00 0.00 0.00 0.00 0.00 0.00 0.00 0.00 0.00 0.00 0.00 0.00 0.00 0.00 0.00 0.00 0.00
0.00 0.00 0.00 0.00 0.00 0.00 0.00 0.00 0.00 0.00 0.00 0.00 0.00 0.00 0.00 0.01 0.01 0.01 0.00 0.00 0.00 0.00 0.00 0.00 0.00 0.00 0.00 0.00 0.00 0.00 0.00 0.00 0.00 0.00 0.00 0.00 0.00 0.00 0.00 0.00 0.00 0.00 0.00 0.00 0.00 0.00 0.00 0.00 0.00 0.00 0.00 0.00 0.00 0.00
0.00 0.00 0.00 0.00 0.00 0.00 0.00 0.00 0.00 0.00 0.00 0.00 0.01 0.01 0.01 0.01 0.01 0.00 0.00 0.00 0.00 0.00 0.00 0.00 0.00 0.00 0.00 0.00 0.00 0.00 0.00 0.00 0.00 0.00 0.00 0.00 0.00 0.00 0.00 0.00 0.00 0.00 0.00 0.00 0.00 0.00 0.00 0.00 0.00 0.00 0.00 0.00 0.00 0.00
0.00 0.00 0.00 0.00 0.00 0.00 0.00 0.00 0.00 0.00 0.00 0.00 0.01 0.00 0.01 0.03 0.04 0.00 0.00 0.00 0.00 0.00 0.00 0.00 0.00 0.00 0.00 0.00 0.00 0.00 0.00 0.00 0.00 0.00 0.00 0.00 0.00 0.00 0.00 0.00 0.00 0.00 0.00 0.00 0.00 0.00 0.00 0.00 0.00 0.00 0.01 0.01 0.00 0.00
0.00 0.00 0.00 0.00 0.00 0.00 0.00 0.00 0.00 0.00 0.00 0.01 0.01 0.00 0.00 0.02 0.01 0.00 0.00 0.00 0.00 0.00 0.00 0.00 0.00 0.00 0.00 0.00 0.00 0.00 0.00 0.00 0.00 0.00 0.00 0.00 0.00 0.00 0.00 0.00 0.00 0.00 0.00 0.00 0.01 0.00 0.00 0.01 0.01 0.01 0.01 0.01 0.00 0.00
MSLP
1025.16 1024.70 1024.21 1023.55 1023.03 1022.55 1022.05 1021.56 1021.08 1020.56 1019.97 1019.52 1019.20 1018.74 1018.50 1018.29 1018.18 1018.38 1018.01 1018.21 1018.65 1018.72 1017.78 1016.94 1016.57 1016.26 1015.59 1015.14 1014.49 1013.76 1013.01 1012.62 1012.10 1011.86 1011.40 1010.54 1009.54 1008.39 1007.01 1006.12 1005.89 1004.61 1004.30 1003.98 1003.29 1002.48 1002.74 1001.59 999.73 999.35 1000.53 1000.32 1000.16 999.74
1024.74 1024.22 1023.59 1023.11 1022.55 1022.04 1021.54 1021.05 1020.52 1019.96 1019.32 1018.89 1018.59 1018.21 1017.93 1017.75 1017.70 1017.75 1017.76 1017.69 1018.11 1018.50 1017.56 1016.93 1016.33 1015.49 1015.17 1014.58 1014.48 1014.23 1014.34 1013.87 1013.51 1013.62 1012.87 1011.77 1010.45 1009.62 1008.39 1008.26 1007.51 1007.32 1007.50 1007.57 1006.57 1005.64 1004.14 1003.17 1002.47 1001.80 1001.49 1001.38 1001.36 1001.11
1024.35 1023.80 1023.13 1022.56 1021.98 1021.47 1021.02 1020.50 1019.96 1019.42 1018.86 1018.41 1018.00 1017.68 1017.41 1017.24 1017.17 1017.32 1017.53 1017.90 1018.25 1018.26 1017.37 1016.27 1015.38 1015.02 1014.70 1014.57 1013.90 1014.47 1014.44 1014.72 1014.86 1014.83 1014.25 1013.08 1011.93 1011.71 1010.79 1010.16 1009.57 1008.75 1007.99 1007.66 1007.26 1005.61 1005.87 1004.97 1004.30 1003.52 1003.55 1003.33 1002.27 1001.99
1023.82 1023.16 1022.62 1022.07 1021.43 1021.00 1020.51 1019.99 1019.44 1018.93 1018.41 1017.95 1017.52 1017.19 1016.93 1016.80 1016.86 1017.06 1017.41 1017.79 1017.83 1017.90 1017.54 1015.87 1015.00 1015.12 1015.07 1014.73 1014.73 1015.09 1015.21 1015.08 1015.29 1015.36 1015.20 1014.89 1014.30 1013.66 1012.79 1012.14 1011.42 1010.35 1009.69 1009.86 1008.04 1007.30 1006.74 1004.79 1004.96 1005.58 1005.01 1004.63 1003.70 1003.00
1023.18 1022.64 1022.07 1021.52 1020.95 1020.48 1019.99 1019.51 1019.00 1018.52 1018.00 1017.59 1017.20 1016.83 1016.57 1016.60 1016.71 1016.81 1016.97 1017.41 1017.36 1017.69 1017.30 1016.20 1015.53 1015.59 1015.39 1015.32 1015.39 1015.48 1015.68 1015.93 1015.98 1016.04 1015.91 1015.84 1015.79 1015.54 1014.42 1012.84 1012.15 1012.25 1012.49 1012.08 1009.92 1009.06 1009.52 1007.43 1006.21 1006.12 1006.14 1005.27 1004.81 1004.26
1022.60 1022.07 1021.59 1021.00 1020.44 1019.99 1019.55 1019.09 1018.68 1018.23 1017.77 1017.36 1016.96 1016.60 1016.53 1016.53 1016.61 1016.86 1017.13 1017.57 1017.24 1017.40 1017.20 1016.31 1015.27 1015.34 1015.64 1015.58 1015.89 1016.23 1016.52 1016.86 1017.19 1017.57 1017.75 1017.57 1017.16 1016.97 1016.24 1015.11 1013.70 1013.23 1012.58 1012.02 1009.89 1008.72 1007.75 1006.84 1006.76 1006.11 1005.79 1005.11 1004.94 1004.23
1022.08 1021.57 1021.12 1020.52 1020.01 1019.57 1019.14 1018.72 1018.32 1017.97 1017.56 1017.25 1017.01 1016.82 1016.71 1016.72 1016.64 1016.74 1017.17 1017.13 1017.21 1017.29 1017.14 1016.08 1015.24 1015.16 1015.34 1015.76 1016.22 1016.78 1017.38 1017.82 1018.02 1018.39 1018.58 1018.47 1018.20 1017.98 1017.38 1016.44 1014.52 1012.65 1010.28 1008.75 1008.29 1007.44 1006.44 1006.26 1005.45 1004.98 1004.77 1004.08 1003.87 1003.28
1021.64 1021.12 1020.64 1020.05 1019.62 1019.24 1018.76 1018.44 1018.01 1017.69 1017.33 1017.14 1017.09 1017.06 1017.03 1016.90 1017.16 1016.83 1017.21 1017.15 1017.09 1017.07 1016.94 1016.10 1014.82 1014.79 1015.05 1015.53 1016.32 1017.08 1017.38 1017.74 1018.12 1018.39 1018.46 1018.57 1018.49 1018.17 1017.34 1015.81 1014.00 1012.08 1009.68 1007.91 1006.76 1006.27 1005.81 1005.13 1004.48 1004.13 1004.23 1004.07 1003.60 1003.34
1021.33 1020.70 1020.13 1019.69 1019.27 1018.86 1018.49 1018.11 1017.70 1017.33 1017.15 1017.03 1017.08 1017.13 1016.97 1017.15 1016.53 1016.79 1017.08 1017.20 1017.03 1017.11 1016.29 1015.59 1015.09 1014.33 1014.49 1014.89 1016.04 1016.92 1017.24 1017.33 1017.78 1017.75 1017.68 1018.07 1017.85 1017.26 1016.50 1015.12 1013.54 1012.22 1010.62 1008.85 1007.33 1006.33 1005.58 1005.10 1004.28 1003.48 1003.78 1003.85 1003.73 1003.48
1020.94 1020.32 1019.72 1019.31 1018.89 1018.56 1018.22 1017.80 1017.41 1017.13 1017.07 1017.15 1017.28 1016.81 1016.25 1016.28 1016.70 1016.88 1016.97 1016.74 1016.32 1015.89 1015.37 1015.06 1014.71 1014.03 1013.66 1014.24 1014.83 1015.67 1016.31 1016.24 1016.40 1016.25 1016.59 1016.93 1016.73 1016.18 1015.71 1014.54 1013.71 1012.50 1011.65 1009.97 1007.99 1006.89 1006.08 1005.53 1004.80 1004.31 1004.30 1004.18 1003.95 1003.70
1020.54 1020.00 1019.44 1018.91 1018.41 1018.03 1017.88 1017.52 1017.31 1017.14 1017.26 1017.11 1016.21 1015.39 1016.17 1016.58 1016.41 1016.23 1015.43 1014.92 1014.45 1014.49 1013.94 1014.01 1013.88 1013.37 1012.79 1013.06 1013.60 1013.98 1014.32 1014.37 1014.59 1015.23 1015.55 1016.26 1016.04 1015.56 1014.75 1014.11 1013.34 1012.66 1012.03 1011.26 1010.17 1008.86 1007.70 1006.82 1006.02 1005.59 1005.32 1005.15 1004.89 1004.44
1020.08 1019.58 1019.04 1018.48 1017.91 1017.45 1017.36 1017.22 1017.21 1017.27 1016.06 1016.24 1016.05 1014.56 1015.40 1015.61 1014.95 1014.29 1013.64 1013.02 1012.90 1012.54 1011.42 1011.56 1012.08 1012.43 1012.07 1012.41 1013.12 1012.76 1012.79 1012.88 1013.47 1014.42 1015.53 1016.11 1016.23 1015.38 1014.61 1013.94 1013.27 1012.59 1012.21 1011.89 1011.06 1010.36 1009.40 1008.59 1007.64 1006.95 1006.67 1006.44 1005.95 1005.15
1019.55 1019.01 1018.47 1017.96 1017.47 1016.91 1016.76 1016.67 1016.62 1016.30 1016.15 1014.84 1015.08 1013.93 1013.62 1013.44 1013.25 1012.68 1012.14 1011.66 1011.14 1010.45 1010.04 1010.30 1011.14 1011.49 1011.54 1011.63 1011.75 1011.41 1011.67 1012.37 1013.07 1014.98 1016.17 1016.31 1016.01 1015.35 1014.62 1013.94 1013.40 1012.78 1012.10 1012.00 1011.73 1011.03 1010.57 1010.05 1009.13 1008.59 1008.44 1008.19 1007.45 1006.63
1019.01 1018.33 1017.77 1017.36 1016.95 1016.40 1016.05 1016.04 1015.98 1016.24 1016.09 1014.64 1013.02 1013.15 1012.79 1012.27 1012.27 1011.52 1011.19 1010.83 1010.34 1010.00 1009.63 1009.40 1009.73 1010.24 1010.08 1010.62 1010.67 1011.37 1012.51 1013.51 1014.69 1015.77 1016.50 1016.50 1015.91 1015.41 1014.66 1014.05 1013.49 1012.98 1012.42 1011.90 1011.85 1011.68 1011.22 1010.76 1010.52 1010.21 1009.75 1009.39 1008.90 1008.73
1018.39 1017.62 1017.05 1016.45 1016.20 1015.96 1015.48 1015.43 1015.58 1015.55 1014.82 1013.06 1012.30 1012.36 1011.65 1011.26 1011.05 1010.97 1010.78 1010.51 1010.16 1009.63 1009.14 1009.10 1008.97 1009.59 1009.87 1010.67 1011.45 1012.13 1013.15 1014.59 1015.58 1016.03 1016.19 1015.94 1015.65 1015.20 1014.62 1014.03 1013.57 1013.14 1012.65 1012.17 1011.59 1011.56 1011.64 1011.32 1010.98 1010.85 1010.71 1010.50 1010.30 1010.30
1017.77 1016.75 1016.08 1016.01 1015.59 1015.12 1015.04 1015.06 1015.38 1014.60 1012.89 1012.02 1011.40 1011.27 1011.06 1011.24 1011.26 1011.10 1010.90 1010.68 1010.24 1009.49 1008.49 1008.34 1009.22 1010.13 1010.90 1011.84 1012.65 1013.48 1014.30 1014.88 1015.05 1015.10 1015.25 1015.06 1014.90 1014.74 1014.34 1014.00 1013.43 1012.99 1012.64 1012.27 1011.79 1011.51 1011.33 1011.31 1011.16 1011.13 1011.09 1011.02 1010.87 1010.67
1017.43 1016.08 1015.83 1015.62 1015.06 1013.97 1013.59 1014.02 1013.37 1012.67 1011.84 1011.58 1010.99 1010.76 1010.91 1011.18 1011.48 1011.33 1011.17 1010.96 1010.33 1009.95 1009.51 1009.49 1010.34 1010.91 1011.66 1012.79 1013.47 1013.91 1014.61 1015.01 1014.86 1014.73 1014.70 1014.62 1014.61 1014.41 1014.11 1013.66 1013.13 1012.84 1012.63 1012.30 1012.04 1011.60 1011.28 1011.17 1010.97 1011.00 1011.09 1010.89 1010.65 1010.41
1016.76 1015.19 1015.36 1015.51 1015.54 1014.13 1012.95 1012.74 1011.82 1011.43 1010.92 1010.87 1010.77 1010.92 1010.92 1011.08 1011.24 1011.28 1011.20 1011.14 1010.83 1010.63 1010.29 1010.33 1010.79 1011.71 1012.56 1013.34 1014.07 1014.69 1014.83 1014.97 1014.96 1014.74 1014.37 1014.34 1014.22 1014.00 1013.72 1013.35 1012.99 1012.73 1012.61 1012.44 1012.17 1011.89 1011.68 1011.49 1011.35 1011.36 1011.32 1011.26 1011.22 1010.92
1016.99 1016.49 1015.79 1015.69 1016.26 1015.60 1012.89 1011.72 1011.73 1010.99 1010.51 1010.50 1010.72 1010.90 1011.03 1010.95 1010.90 1010.88 1011.00 1011.07 1011.03 1010.99 1011.12 1011.21 1011.82 1012.83 1013.67 1014.33 1014.71 1014.99 1015.27 1015.51 1015.44 1014.96 1014.46 1014.23 1013.98 1013.80 1013.42 1013.16 1012.91 1012.61 1012.54 1012.59 1012.52 1012.35 1012.27 1012.04 1011.86 1011.64 1011.52 1011.56 1011.65 1011.61
1016.22 1015.40 1014.99 1015.20 1015.67 1014.52 1012.38 1011.46 1011.27 1011.02 1010.27 1010.44 1010.53 1010.46 1010.46 1010.54 1010.53 1010.60 1010.73 1011.03 1011.16 1011.26 1011.76 1012.35 1013.03 1013.67 1014.15 1014.69 1014.83 1015.18 1015.52 1015.61 1015.50 1015.03 1014.56 1014.28 1014.05 1013.68 1013.51 1013.14 1012.95 1012.66 1012.53 1012.61 1012.71 1012.82 1012.81 1012.57 1012.38 1011.96 1011.94 1011.96 1011.96 1011.81
1015.10 1014.31 1014.27 1014.59 1014.25 1013.70 1012.17 1011.33 1010.95 1010.59 1010.41 1010.11 1010.23 1010.20 1010.38 1010.41 1010.28 1010.52 1010.66 1010.77 1011.24 1011.89 1012.42 1013.02 1013.52 1014.02 1014.22 1014.49 1014.69 1014.97 1015.25 1015.38 1015.37 1015.04 1014.67 1014.22 1013.96 1013.59 1013.29 1013.08 1012.91 1012.83 1012.81 1012.79 1012.81 1013.03 1013.14 1013.14 1012.93 1012.41 1012.30 1012.34 1012.09 1012.02
1014.67 1014.09 1013.95 1013.37 1012.98 1011.93 1011.75 1010.95 1010.88 1010.61 1010.58 1010.06 1009.98 1009.89 1010.14 1010.17 1010.39 1010.75 1010.97 1010.82 1011.14 1011.82 1012.46 1013.08 1013.51 1013.77 1013.84 1013.98 1014.17 1014.43 1014.78 1015.02 1014.75 1014.44 1014.20 1014.04 1014.00 1013.86 1013.50 1013.21 1013.05 1013.06 1013.13 1013.25 1013.05 1013.14 1013.26 1013.23 1013.11 1012.94 1012.87 1012.75 1012.48 1012.20
1014.73 1014.48 1013.69 1012.70 1012.19 1012.34 1011.89 1011.03 1010.87 1010.65 1010.31 1010.08 1010.01 1010.07 1009.94 1009.93 1010.13 1010.51 1011.09 1010.97 1011.40 1011.86 1012.35 1012.84 1013.00 1013.13 1013.36 1013.41 1013.44 1013.84 1014.23 1014.38 1014.34 1014.25 1014.21 1014.16 1014.15 1014.06 1013.83 1013.46 1013.23 1013.50 1013.71 1013.68 1013.48 1013.46 1013.60 1013.48 1013.42 1013.49 1013.44 1013.34 1013.31 1013.46
1014.96 1014.28 1013.04 1012.55 1012.02 1011.85 1010.94 1010.60 1010.37 1009.99 1009.77 1009.88 1010.13 1010.03 1009.74 1010.22 1010.88 1011.21 1010.84 1010.77 1011.16 1011.65 1012.33 1012.65 1012.78 1012.83 1012.87 1013.30 1013.64 1014.09 1014.22 1014.19 1014.39 1014.48 1014.53 1014.52 1014.51 1014.49 1014.26 1014.01 1013.96 1014.21 1014.29 1014.06 1013.92 1013.85 1013.81 1013.74 1013.63 1013.85 1013.91 1014.13 1014.13 1014.39
1015.21 1014.33 1013.56 1012.68 1011.71 1011.08 1010.52 1009.93 1009.83 1009.97 1011.01 1011.10 1010.00 1009.59 1010.08 1011.72 1012.70 1012.53 1011.95 1010.82 1011.30 1011.74 1012.17 1012.44 1012.87 1013.31 1013.39 1013.56 1013.61 1014.05 1014.20 1014.49 1014.78 1014.82 1014.92 1014.84 1014.87 1014.83 1014.78 1014.79 1015.10 1015.19 1014.97 1014.78 1014.60 1014.40 1014.34 1014.20 1014.27 1014.67 1014.75 1014.88 1014.92 1015.06
1014.67 1013.05 1012.68 1011.12 1010.25 1010.19 1009.98 1010.27 1010.58 1011.77 1011.76 1012.05 1011.27 1010.41 1011.23 1012.24 1012.99 1013.36 1013.87 1012.96 1011.84 1011.79 1011.99 1012.35 1012.75 1013.27 1013.47 1013.38 1013.44 1013.63 1013.95 1014.29 1014.63 1014.72 1015.01 1014.93 1014.91 1015.19 1015.25 1015.25 1015.48 1015.80 1015.55 1015.31 1015.14 1015.07 1014.95 1014.84 1014.92 1015.20 1015.22 1015.32 1015.46 1015.50
1012.95 1011.36 1010.70 1010.35 1009.99 1010.14 1010.31 1011.80 1012.20 1012.37 1012.12 1011.66 1011.09 1010.38 1011.04 1012.01 1013.85 1014.88 1014.50 1013.80 1012.27 1012.16 1012.06 1012.36 1012.90 1013.04 1013.10 1013.12 1013.36 1013.58 1013.66 1013.82 1014.14 1014.19 1014.53 1014.74 1014.95 1015.20 1015.29 1015.53 1015.88 1016.11 1015.91 1015.80 1015.84 1015.81 1015.75 1015.70 1015.70 1015.76 1015.87 1015.94 1015.92 1015.97
1011.19 1010.28 1009.76 1009.44 1009.45 1010.20 1012.21 1012.26 1012.52 1011.60 1010.66 1010.52 1010.22 1009.20 1009.95 1011.47 1013.98 1014.58 1014.33 1013.93 1012.29 1012.09 1012.21 1012.35 1012.56 1012.69 1012.72 1012.85 1013.27 1013.41 1013.42 1013.35 1013.82 1013.82 1014.21 1014.59 1015.06 1015.37 1015.51 1015.73 1015.95 1016.10 1016.35 1016.59 1016.69 1016.62 1016.64 1016.42 1016.31 1016.29 1016.33 1016.44 1016.47 1016.44
1009.88 1009.51 1009.44 1009.01 1008.90 1009.33 1010.63 1010.88 1010.43 1010.32 1009.27 1008.81 1008.47 1009.08 1011.13 1012.63 1013.04 1012.91 1012.56 1011.96 1011.83 1011.99 1012.12 1011.96 1012.32 1012.24 1012.20 1012.62 1012.90 1013.33 1013.39 1013.47 1013.86 1014.21 1014.60 1014.89 1015.17 1015.61 1015.70 1015.84 1015.97 1016.08 1016.43 1016.91 1017.16 1017.21 1017.26 1017.24 1017.14 1017.09 1016.89 1016.86 1016.86 1017.05
1008.86 1008.47 1008.53 1008.58 1008.28 1007.99 1008.36 1008.48 1008.33 1008.42 1008.00 1007.56 1007.51 1009.05 1011.08 1012.72 1013.10 1012.61 1012.43 1011.82 1012.04 1012.27 1012.08 1011.86 1011.93 1012.24 1012.59 1012.99 1013.46 1013.99 1014.38 1014.59 1014.97 1015.43 1015.62 1015.75 1015.90 1016.08 1016.22 1016.27 1016.25 1016.29 1016.44 1016.72 1016.98 1017.10 1017.31 1017.42 1017.46 1017.24 1017.00 1017.07 1017.10 1017.14
1007.52 1007.80 1007.93 1007.93 1007.20 1006.71 1006.63 1006.67 1007.27 1007.31 1007.66 1009.61 1010.09 1012.19 1013.06 1013.51 1013.69 1012.72 1012.49 1012.23 1011.93 1012.06 1012.18 1012.38 1012.86 1013.25 1013.59 1014.05 1014.53 1015.00 1015.62 1016.19 1016.60 1016.92 1017.01 1016.85 1016.84 1016.88 1016.86 1016.66 1016.68 1016.90 1016.96 1016.98 1017.26 1017.13 1017.30 1017.37 1017.37 1017.34 1017.27 1017.39 1017.46 1017.43
1007.08 1007.13 1007.12 1007.04 1006.49 1006.12 1006.06 1006.42 1006.68 1006.98 1008.55 1009.64 1011.41 1012.33 1012.67 1013.34 1013.42 1013.03 1013.26 1012.81 1012.55 1012.56 1013.10 1013.28 1013.75 1014.34 1014.64 1014.92 1015.26 1016.22 1016.75 1017.46 1018.02 1018.26 1018.38 1018.39 1018.30 1017.92 1017.59 1017.45 1017.40 1017.48 1017.48 1017.48 1017.90 1017.99 1017.87 1017.78 1017.75 1017.73 1017.80 1017.73 1017.60 1017.59
1006.61 1006.78 1006.55 1006.23 1006.53 1005.91 1005.71 1006.07 1006.40 1006.78 1007.95 1009.83 1011.25 1011.41 1011.64 1012.07 1012.79 1013.19 1013.19 1013.26 1013.26 1013.18 1013.44 1013.85 1014.30 1014.87 1015.24 1015.58 1016.49 1017.13 1017.66 1018.36 1019.05 1019.33 1019.44 1019.48 1019.26 1019.03 1018.78 1018.67 1018.37 1018.07 1018.01 1018.09 1018.18 1018.17 1018.09 1018.04 1017.99 1017.91 1017.94 1017.93 1017.90 1017.79
Thickness
5562 5558 5553 5554 5552 5548 5546 5543 5539 5537 5536 5535 5534 5533 5529 5525 5523 5517 5514 5504 5492 5481 5481 5482 5474 5465 5464 5461 5456 5463 5466 5463 5466 5466 5474 5477 5500 5518 5535 5545 5537 5560 5577 5595 5612 5620 5606 5646 5664 5660 5665 5686 5700 5711
5560 5555 5554 5554 5553 5550 5549 5546 5545 5544 5544 5541 5538 5536 5533 5531 5528 5523 5518 5510 5498 5486 5488 5483 5478 5477 5472 5472 5463 5462 5456 5459 5466 5459 5466 5483 5502 5512 5529 5519 5538 5536 5541 5537 5566 5571 5613 5625 5637 5648 5660 5669 5679 5691
5557 5554 5556 5556 5555 5555 5552 5551 5549 5548 5546 5544 5542 5541 5538 5537 5534 5529 5523 5511 5501 5492 5494 5495 5493 5487 5482 5477 5476 5463 5465 5459 5454 5457 5465 5482 5496 5505 5515 5526 5528 5538 5550 5548 5560 5583 5587 5601 5603 5620 5636 5650 5670 5685
5555 5557 5558 5558 5559 5558 5555 5554 5553 5551 5550 5548 5547 5545 5544 5542 5539 5534 5526 5517 5509 5501 5493 5505 5504 5493 5487 5483 5477 5467 5460 5461 5459 5457 5459 5468 5478 5488 5497 5512 5509 5520 5528 5528 5562 5577 5586 5618 5620 5621 5636 5648 5665 5677
5557 5560 5561 5562 5562 5561 5559 5558 5557 5556 5555 5553 5552 5551 5549 5546 5543 5538 5532 5523 5517 5507 5503 5508 5508 5500 5494 5490 5483 5476 5469 5465 5462 5458 5461 5461 5464 5470 5481 5503 5511 5514 5508 5512 5547 5563 5561 5591 5612 5621 5624 5637 5646 5660
5561 5564 5565 5566 5566 5565 5563 5562 5562 5561 5560 5559 5557 5556 5553 5550 5546 5541 5535 5527 5523 5516 5512 5517 5522 5513 5505 5499 5491 5483 5475 5468 5462 5454 5451 5451 5457 5458 5461 5473 5500 5495 5503 5511 5539 5563 5577 5595 5598 5614 5622 5630 5634 5649
5566 5568 5569 5570 5570 5569 5568 5568 5568 5566 5565 5563 5561 5558 5554 5552 5550 5550 5544 5535 5529 5525 5521 5532 5530 5526 5519 5510 5501 5490 5479 5469 5464 5455 5449 5448 5450 5453 5450 5465 5484 5498 5519 5532 5539 5558 5575 5584 5595 5604 5614 5631 5639 5652
5569 5572 5573 5575 5574 5573 5573 5573 5573 5572 5570 5567 5563 5559 5555 5554 5549 5550 5542 5538 5535 5533 5531 5534 5544 5539 5530 5523 5512 5496 5490 5483 5473 5467 5461 5453 5449 5443 5450 5462 5486 5502 5523 5542 5550 5555 5557 5574 5592 5602 5604 5615 5624 5631
5572 5574 5576 5577 5578 5578 5577 5576 5577 5576 5573 5570 5565 5560 5558 5555 5559 5554 5545 5541 5539 5537 5539 5542 5537 5544 5539 5534 5515 5503 5498 5498 5483 5481 5479 5463 5451 5460 5470 5482 5492 5500 5511 5528 5545 5553 5558 5562 5571 5586 5591 5600 5608 5617
5575 5577 5578 5580 5581 5580 5579 5579 5578 5578 5574 5569 5565 5568 5569 5565 5555 5551 5548 5547 5547 5546 5548 5542 5544 5545 5551 5538 5534 5522 5507 5514 5514 5511 5494 5487 5483 5491 5487 5492 5492 5498 5502 5512 5525 5536 5542 5543 5551 5562 5568 5578 5586 5598
5579 5580 5581 5582 5584 5584 5582 5581 5579 5577 5573 5573 5576 5581 5568 5560 5560 5556 5563 5563 5564 5549 5556 5546 5550 5550 5552 5548 5542 5538 5534 5533 5522 5520 5515 5497 5495 5498 5501 5499 5501 5500 5499 5500 5507 5514 5519 5520 5524 5532 5541 5550 5561 5575
5582 5583 5585 5587 5588 5589 5586 5583 5580 5577 5587 5581 5578 5584 5570 5566 5570 5574 5574 5576 5567 5560 5579 5573 5561 5558 5556 5553 5539 5545 5542 5543 5534 5528 5509 5495 5493 5502 5506 5506 5505 5506 5503 5499 5500 5501 5505 5508 5514 5520 5525 5531 5540 5551
5585 5587 5590 5591 5592 5593 5590 5587 5584 5583 5581 5587 5583 5586 5584 5581 5565 5577 5572 5574 5573 5585 5587 5582 5569 5563 5557 5556 5552 5557 5553 5542 5543 5513 5487 5499 5498 5501 5502 5504 5505 5507 5508 5503 5500 5500 5500 5501 5507 5511 5512 5513 5520 5528
5589 5593 5594 5595 5595 5596 5596 5592 5590 5585 5583 5587 5596 5566 5581 5581 5577 5583 5581 5580 5586 5585 5586 5587 5577 5569 5573 5563 5564 5552 5542 5530 5510 5498 5487 5489 5496 5497 5500 5503 5501 5502 5507 5508 5503 5499 5498 5498 5497 5499 5502 5505 5507 5508
5593 5598 5599 5601 5600 5599 5600 5599 5595 5591 5592 5601 5600 5563 5589 5598 5598 5594 5591 5588 5588 5590 5590 5579 5584 5577 5570 5560 5553 5545 5530 5508 5497 5492 5491 5493 5494 5494 5496 5499 5500 5500 5500 5502 5506 5505 5498 5496 5496 5494 5493 5495 5499 5495
5598 5604 5604 5602 5604 5606 5605 5603 5598 5600 5610 5607 5607 5598 5602 5594 5590 5590 5588 5584 5589 5590 5596 5594 5578 5564 5555 5546 5535 5524 5513 5501 5507 5506 5500 5500 5499 5496 5496 5496 5497 5499 5499 5500 5500 5500 5503 5499 5497 5494 5492 5490 5492 5496
5600 5609 5606 5606 5609 5616 5617 5611 5613 5613 5612 5606 5603 5610 5602 5595 5586 5586 5586 5584 5589 5585 5579 5579 5561 5554 5552 5533 5526 5525 5513 5509 5508 5507 5504 5501 5497 5496 5496 5496 5498 5496 5495 5495 5495 5496 5498 5499 5500 5497 5493 5495 5496 5497
5602 5610 5609 5607 5605 5614 5623 5620 5622 5617 5611 5611 5604 5602 5601 5597 5589 5587 5586 5584 5581 5575 5574 5568 5567 5550 5539 5529 5520 5516 5512 5509 5504 5503 5504 5500 5497 5495 5495 5495 5496 5494 5491 5490 5489 5492 5491 5490 5491 5491 5489 5487 5487 5489
5599 5601 5606 5605 5599 5602 5618 5623 5619 5611 5613 5613 5608 5603 5598 5596 5595 5592 5588 5584 5581 5577 5570 5562 5552 5538 5529 5523 5517 5512 5507 5500 5496 5496 5497 5496 5494 5491 5492 5492 5491 5491 5491 5485 5482 5483 5483 5481 5481 5483 5485 5483 5481 5481
5605 5610 5611 5608 5602 5611 5619 5620 5623 5611 5610 5609 5608 5602 5600 5596 5596 5593 5588 5581 5574 5570 5559 5549 5541 5534 5527 5520 5516 5508 5501 5496 5492 5492 5491 5490 5487 5485 5485 5485 5483 5485 5485 5483 5478 5473 5472 5472 5474 5475 5475 5474 5473 5477
5609 5614 5614 5610 5615 5613 5619 5618 5613 5613 5612 5609 5607 5605 5598 5598 5595 5587 5583 5583 5571 5559 5549 5544 5537 5531 5527 5521 5515 5508 5499 5493 5487 5486 5485 5485 5483 5482 5480 5479 5477 5475 5472 5472 5473 5468 5463 5460 5463 5467 5467 5466 5467 5471
5612 5614 5615 5619 5617 5624 5618 5624 5614 5615 5609 5610 5606 5605 5596 5591 5588 5583 5582 5578 5570 5561 5553 5543 5536 5532 5527 5521 5515 5508 5500 5493 5489 5487 5484 5480 5474 5471 5469 5469 5466 5463 5459 5456 5457 5459 5457 5454 5454 5456 5454 5457 5459 5460
5610 5611 5615 5620 5616 5601 5597 5621 5609 5610 5603 5604 5604 5596 5595 5594 5593 5590 5573 5574 5566 5561 5553 5544 5540 5534 5526 5522 5517 5509 5500 5492 5486 5481 5476 5470 5466 5462 5459 5458 5457 5452 5445 5441 5441 5441 5442 5443 5442 5442 5440 5442 5443 5444
5609 5610 5613 5611 5613 5597 5621 5614 5617 5617 5616 5608 5598 5593 5596 5586 5581 5572 5573 5569 5565 5559 5547 5540 5534 5528 5523 5513 5505 5496 5489 5484 5476 5470 5465 5460 5455 5450 5447 5445 5444 5439 5433 5432 5430 5428 5426 5427 5429 5429 5426 5425 5425 5426
5595 5597 5599 5577 5614 5614 5613 5616 5617 5612 5593 5588 5599 5600 5592 5571 5555 5560 5558 5568 5564 5553 5544 5538 5528 5518 5511 5504 5497 5489 5484 5475 5465 5460 5455 5451 5446 5441 5436 5431 5427 5422 5421 5420 5419 5418 5415 5413 5413 5410 5410 5406 5406 5406
5580 5610 5599 5621 5626 5619 5619 5612 5612 5579 5580 5572 5584 5597 5584 5568 5559 5552 5542 5553 5557 5551 5543 5533 5522 5512 5504 5501 5494 5486 5478 5470 5461 5456 5448 5444 5439 5430 5425 5421 5414 5409 5409 5408 5407 5407 5406 5405 5401 5398 5398 5397 5394 5394
5587 5617 5627 5633 5629 5623 5616 5591 5589 5586 5583 5578 5583 5593 5584 5572 5552 5537 5535 5538 5544 5543 5540 5530 5518 5509 5503 5497 5489 5481 5476 5470 5460 5454 5447 5440 5433 5426 5420 5413 5406 5400 5399 5397 5394 5393 5391 5390 5390 5388 5387 5385 5386 5386
5623 5629 5622 5629 5626 5617 5578 5578 5577 5589 5599 5598 5596 5600 5592 5579 5549 5542 5540 5540 5552 5546 5536 5527 5518 5509 5503 5495 5485 5477 5471 5466 5456 5450 5440 5433 5424 5417 5411 5405 5399 5393 5388 5381 5378 5377 5375 5377 5377 5377 5377 5375 5374 5374
5628 5633 5631 5625 5628 5624 5603 5597 5600 5601 5613 5611 5606 5602 5581 5566 5559 5555 5555 5554 5550 5539 5528 5523 5514 5509 5504 5493 5484 5473 5468 5461 5451 5441 5433 5425 5417 5408 5403 5398 5391 5386 5379 5373 5365 5363 5361 5360 5361 5362 5364 5364 5365 5362
5633 5643 5633 5630 5627 5627 5626 5627 5623 5624 5628 5626 5611 5588 5578 5559 5554 5554 5550 5551 5540 5531 5527 5523 5516 5505 5495 5486 5476 5464 5456 5450 5441 5430 5420 5413 5407 5401 5394 5389 5384 5378 5371 5365 5360 5357 5352 5350 5350 5352 5354 5354 5354 5355
5650 5641 5628 5629 5636 5644 5645 5646 5638 5633 5630 5596 5589 5563 5551 5554 5545 5552 5549 5543 5537 5530 5523 5514 5504 5494 5486 5476 5466 5454 5443 5433 5424 5415 5407 5403 5397 5391 5385 5381 5375 5366 5359 5354 5348 5347 5345 5344 5344 5345 5347 5346 5346 5347
5649 5642 5640 5633 5639 5650 5650 5640 5636 5632 5612 5599 5580 5570 5568 5554 5546 5547 5541 5538 5530 5522 5510 5505 5494 5483 5475 5467 5459 5443 5431 5419 5410 5403 5397 5390 5385 5382 5378 5372 5365 5357 5350 5344 5336 5333 5333 5334 5335 5337 5337 5340 5342 5343
5647 5640 5645 5644 5635 5639 5644 5638 5631 5627 5617 5597 5580 5581 5577 5568 5551 5544 5540 5535 5526 5518 5510 5500 5492 5481 5470 5461 5447 5435 5424 5412 5401 5394 5388 5382 5378 5375 5370 5364 5358 5353 5346 5339 5333 5329 5329 5330 5332 5334 5335 5337 5339 5341